,,Stat6,,Stat2,,Stat8,,Stat9,,Stat10,,Wind1,,Wind1,
time,status,PA1M_AVG,status,PR1M_SUM,status,RH1M_AVG,status,SR1M_AVG,status,TA1M_AVG,status,W1dAve1m,status,W1sAve1m,
2004-12-22, 00:00:00,VALID,916.951,VALID,0,VALID,98.4146,VALID,-0.0169808,VALID,19.9447,VALID,150,VALID,0.570126,
2004-12-22, 00:01:00,VALID,916.953,VALID,0,VALID,98.4451,VALID,0,VALID,19.9477,VALID,151,VALID,0.489901,
2004-12-22, 00:02:00,VALID,916.943,VALID,0,VALID,98.4298,VALID,0,VALID,19.9415,VALID,155,VALID,0.717188,
2004-12-22, 00:03:00,VALID,916.945,VALID,0,VALID,98.5354,VALID,-0.0169808,VALID,19.9353,VALID,136,VALID,0.917696,
2004-12-22, 00:04:00,VALID,916.94,VALID,0,VALID,98.412,VALID,0.0169808,VALID,19.9124,VALID,117,VALID,0.782965,
2004-12-22, 00:05:00,VALID,916.932,VALID,0,VALID,98.3853,VALID,0,VALID,19.8866,VALID,107,VALID,0.755504,
2004-12-22, 00:06:00,VALID,916.922,VALID,0,VALID,98.7566,VALID,0,VALID,19.8831,VALID,147,VALID,1.2629,
2004-12-22, 00:07:00,VALID,916.922,VALID,0,VALID,98.8266,VALID,-0.0169808,VALID,19.8963,VALID,155,VALID,1.11501,
2004-12-22, 00:08:00,VALID,916.917,VALID,0,VALID,98.7426,VALID,0,VALID,19.8866,VALID,123,VALID,0.923328,
2004-12-22, 00:09:00,VALID,916.919,VALID,0,VALID,98.4438,VALID,0.0169808,VALID,19.8672,VALID,109,VALID,0.881541,
2004-12-22, 00:10:00,VALID,916.909,VALID,0,VALID,98.7248,VALID,0,VALID,19.8443,VALID,114,VALID,1.03278,
2004-12-22, 00:11:00,VALID,916.889,VALID,0,VALID,98.899,VALID,-0.0169808,VALID,19.8408,VALID,136,VALID,0.988009,
2004-12-22, 00:12:00,VALID,916.863,VALID,0,VALID,98.899,VALID,0.0169808,VALID,19.8376,VALID,141,VALID,0.837153,
2004-12-22, 00:13:00,VALID,916.863,VALID,0,VALID,98.8901,VALID,-0.0169808,VALID,19.8381,VALID,140,VALID,0.964674,
2004-12-22, 00:14:00,VALID,916.852,VALID,0,VALID,98.8762,VALID,0.0169808,VALID,19.8413,VALID,140,VALID,0.992383,
2004-12-22, 00:15:00,VALID,916.825,VALID,0,VALID,98.88,VALID,0,VALID,19.8217,VALID,137,VALID,0.894245,
2004-12-22, 00:16:00,VALID,916.836,VALID,0,VALID,98.9194,VALID,0,VALID,19.8185,VALID,134,VALID,0.795473,
2004-12-22, 00:17:00,VALID,916.816,VALID,0,VALID,98.8571,VALID,0,VALID,19.809,VALID,122,VALID,0.969815,
2004-12-22, 00:18:00,VALID,916.816,VALID,0,VALID,98.8647,VALID,0,VALID,19.8028,VALID,86,VALID,0.766146,
2004-12-22, 00:19:00,VALID,916.8,VALID,0,VALID,98.8774,VALID,0,VALID,19.7964,VALID,109,VALID,0.545847,
2004-12-22, 00:20:00,VALID,916.795,VALID,0,VALID,98.9372,VALID,0,VALID,19.7931,VALID,129,VALID,0.538504,
2004-12-22, 00:21:00,VALID,916.776,VALID,0,VALID,98.9003,VALID,0,VALID,19.774,VALID,129,VALID,0.618521,
2004-12-22, 00:22:00,VALID,916.77,VALID,0,VALID,98.9207,VALID,0,VALID,19.77,VALID,154,VALID,0.664993,
2004-12-22, 00:23:00,VALID,916.753,VALID,0,VALID,98.8151,VALID,0,VALID,19.7671,VALID,131,VALID,0.558333,
2004-12-22, 00:24:00,VALID,916.73,VALID,0,VALID,98.7706,VALID,0.0169808,VALID,19.7735,VALID,155,VALID,0.55434,
2004-12-22, 00:25:00,VALID,916.726,VALID,0,VALID,98.5557,VALID,0,VALID,19.7574,VALID,104,VALID,0.730299,
2004-12-22, 00:26:00,VALID,916.698,VALID,0,VALID,98.4909,VALID,0,VALID,19.7315,VALID,116,VALID,0.822545,
2004-12-22, 00:27:00,VALID,916.683,VALID,0,VALID,98.7515,VALID,0,VALID,19.7253,VALID,147,VALID,0.862464,
2004-12-22, 00:28:00,VALID,916.65,VALID,0,VALID,98.7744,VALID,0,VALID,19.7186,VALID,136,VALID,0.827734,
2004-12-22, 00:29:00,VALID,916.626,VALID,0,VALID,98.8444,VALID,0,VALID,19.7223,VALID,152,VALID,0.910065,
2004-12-22, 00:30:00,VALID,916.627,VALID,0,VALID,98.9359,VALID,-0.0169808,VALID,19.7025,VALID,138,VALID,0.784446,
2004-12-22, 00:31:00,VALID,916.606,VALID,0,VALID,98.9614,VALID,-0.0169808,VALID,19.7127,VALID,148,VALID,0.84003,
2004-12-22, 00:32:00,VALID,916.587,VALID,0,VALID,99.0733,VALID,0,VALID,19.7194,VALID,139,VALID,0.646577,
2004-12-22, 00:33:00,VALID,916.58,VALID,0,VALID,99.0618,VALID,0,VALID,19.7057,VALID,123,VALID,0.634084,
2004-12-22, 00:34:00,VALID,916.572,VALID,0,VALID,98.9283,VALID,0,VALID,19.6801,VALID,98,VALID,0.649306,
2004-12-22, 00:35:00,VALID,916.555,VALID,0,VALID,99.1267,VALID,0,VALID,19.6736,VALID,133,VALID,0.622638,
2004-12-22, 00:36:00,VALID,916.534,VALID,0,VALID,99.2767,VALID,-0.0339617,VALID,19.6709,VALID,144,VALID,0.699695,
2004-12-22, 00:37:00,VALID,916.514,VALID,0,VALID,99.2449,VALID,-0.0169808,VALID,19.661,VALID,135,VALID,0.586111,
2004-12-22, 00:38:00,VALID,916.487,VALID,0,VALID,99.2068,VALID,0,VALID,19.6384,VALID,126,VALID,0.612043,
2004-12-22, 00:39:00,VALID,916.466,VALID,0,VALID,99.0364,VALID,0,VALID,19.6061,VALID,95,VALID,0.788352,
2004-12-22, 00:40:00,VALID,916.437,VALID,0,VALID,99.0872,VALID,0,VALID,19.5837,VALID,93,VALID,0.736378,
2004-12-22, 00:41:00,VALID,916.408,VALID,0,VALID,99.1979,VALID,-0.0169808,VALID,19.5638,VALID,107,VALID,0.871271,
2004-12-22, 00:42:00,VALID,916.385,VALID,0,VALID,99.2195,VALID,-0.0169808,VALID,19.5576,VALID,113,VALID,0.698103,
2004-12-22, 00:43:00,VALID,916.371,VALID,0,VALID,99.2462,VALID,-0.0169808,VALID,19.5544,VALID,125,VALID,0.755526,
2004-12-22, 00:44:00,VALID,916.358,VALID,0,VALID,99.1801,VALID,0,VALID,19.5415,VALID,106,VALID,0.548971,
2004-12-22, 00:45:00,VALID,916.353,VALID,0,VALID,99.1966,VALID,-0.0169808,VALID,19.5482,VALID,139,VALID,0.944767,
2004-12-22, 00:46:00,VALID,916.324,VALID,0,VALID,99.3225,VALID,-0.0169808,VALID,19.5507,VALID,144,VALID,0.900746,
2004-12-22, 00:47:00,VALID,916.288,VALID,0,VALID,99.3009,VALID,0.0169808,VALID,19.5738,VALID,139,VALID,0.669922,
2004-12-22, 00:48:00,VALID,916.264,VALID,0,VALID,99.3288,VALID,0.0169808,VALID,19.5961,VALID,144,VALID,0.898015,
2004-12-22, 00:49:00,VALID,916.246,VALID,0,VALID,99.2602,VALID,0,VALID,19.6155,VALID,134,VALID,1.05673,
2004-12-22, 00:50:00,VALID,916.224,VALID,0,VALID,99.1788,VALID,-0.0169808,VALID,19.6545,VALID,158,VALID,0.981326,
2004-12-22, 00:51:00,VALID,916.215,VALID,0,VALID,98.9652,VALID,0.0169808,VALID,19.6577,VALID,148,VALID,0.720348,
2004-12-22, 00:52:00,VALID,916.205,VALID,0,VALID,99.0478,VALID,0.0169808,VALID,19.6702,VALID,136,VALID,1.25316,
2004-12-22, 00:53:00,VALID,916.197,VALID,0,VALID,98.913,VALID,0,VALID,19.6928,VALID,157,VALID,0.890285,
2004-12-22, 00:54:00,VALID,916.196,VALID,0,VALID,98.7248,VALID,0.0169808,VALID,19.7025,VALID,151,VALID,0.511905,
2004-12-22, 00:55:00,VALID,916.198,VALID,0,VALID,98.6282,VALID,0,VALID,19.7064,VALID,131,VALID,0.930035,
2004-12-22, 00:56:00,VALID,916.194,VALID,0,VALID,98.5379,VALID,0,VALID,19.7156,VALID,134,VALID,1.10885,
2004-12-22, 00:57:00,VALID,916.202,VALID,0,VALID,98.4362,VALID,0,VALID,19.7353,VALID,133,VALID,0.978659,
2004-12-22, 00:58:00,VALID,916.192,VALID,0,VALID,98.3039,VALID,0,VALID,19.7512,VALID,126,VALID,0.501715,
2004-12-22, 00:59:00,VALID,916.181,VALID,0,VALID,98.1997,VALID,0.0169808,VALID,19.7581,VALID,151,VALID,0.925959,
2004-12-22, 01:00:00,VALID,916.158,VALID,0,VALID,98.1793,VALID,0.0339617,VALID,19.7477,VALID,129,VALID,0.861793,
2004-12-22, 01:01:00,VALID,916.143,VALID,0,VALID,98.1666,VALID,0,VALID,19.7638,VALID,142,VALID,1.36886,
2004-12-22, 01:02:00,VALID,916.13,VALID,0,VALID,98.0153,VALID,0,VALID,19.7668,VALID,110,VALID,0.964208,
2004-12-22, 01:03:00,VALID,916.1,VALID,0,VALID,97.9123,VALID,0.0169808,VALID,19.7767,VALID,95,VALID,0.673633,
2004-12-22, 01:04:00,VALID,916.073,VALID,0,VALID,97.9301,VALID,0.0509425,VALID,19.7668,VALID,120,VALID,1.11049,
2004-12-22, 01:05:00,VALID,916.063,VALID,0,VALID,97.9886,VALID,0.0339617,VALID,19.78,VALID,123,VALID,1.05469,
2004-12-22, 01:06:00,VALID,916.071,VALID,0,VALID,97.9046,VALID,-0.0169808,VALID,19.7961,VALID,118,VALID,1.09661,
2004-12-22, 01:07:00,VALID,916.066,VALID,0,VALID,97.8042,VALID,0,VALID,19.7929,VALID,124,VALID,1.07564,
2004-12-22, 01:08:00,VALID,916.059,VALID,0,VALID,97.7279,VALID,0.0169808,VALID,19.8093,VALID,136,VALID,1.5092,
2004-12-22, 01:09:00,VALID,916.065,VALID,0,VALID,97.4049,VALID,0.0169808,VALID,19.8346,VALID,121,VALID,1.38477,
2004-12-22, 01:10:00,VALID,916.051,VALID,0,VALID,97.2917,VALID,0,VALID,19.8739,VALID,142,VALID,1.07385,
2004-12-22, 01:11:00,VALID,916.05,VALID,0,VALID,97.101,VALID,0.0169808,VALID,19.9059,VALID,109,VALID,1.16834,
2004-12-22, 01:12:00,VALID,916.039,VALID,0,VALID,96.8619,VALID,0.0169808,VALID,19.9156,VALID,103,VALID,1.35286,
2004-12-22, 01:13:00,VALID,916.043,VALID,0,VALID,96.633,VALID,-0.0169808,VALID,19.9484,VALID,107,VALID,0.930831,
2004-12-22, 01:14:00,VALID,916.037,VALID,0,VALID,96.5987,VALID,-0.0169808,VALID,19.9579,VALID,120,VALID,1.40262,
2004-12-22, 01:15:00,VALID,916.023,VALID,0,VALID,96.4983,VALID,0,VALID,19.9773,VALID,119,VALID,0.924782,
2004-12-22, 01:16:00,VALID,916.021,VALID,0,VALID,96.305,VALID,0.0169808,VALID,20.0093,VALID,112,VALID,1.42245,
2004-12-22, 01:17:00,VALID,916.025,VALID,0,VALID,96.085,VALID,-0.0169808,VALID,20.0518,VALID,109,VALID,1.35938,
2004-12-22, 01:18:00,VALID,916.021,VALID,0,VALID,95.968,VALID,0,VALID,20.0739,VALID,121,VALID,0.712466,
2004-12-22, 01:19:00,VALID,916.024,VALID,0,VALID,95.9858,VALID,-0.0169808,VALID,20.0871,VALID,128,VALID,0.999619,
2004-12-22, 01:20:00,VALID,916.027,VALID,0,VALID,96.1041,VALID,0,VALID,20.0898,VALID,130,VALID,1.54135,
2004-12-22, 01:21:00,VALID,916.028,VALID,0,VALID,96.2007,VALID,0,VALID,20.0833,VALID,125,VALID,0.840523,
2004-12-22, 01:22:00,VALID,916.045,VALID,0,VALID,96.216,VALID,0.0169808,VALID,20.0769,VALID,131,VALID,1.1474,
2004-12-22, 01:23:00,VALID,916.041,VALID,0,VALID,96.3622,VALID,0,VALID,20.0707,VALID,127,VALID,1.26758,
2004-12-22, 01:24:00,VALID,916.026,VALID,0,VALID,96.4131,VALID,0,VALID,20.0645,VALID,154,VALID,0.369992,
2004-12-22, 01:25:00,VALID,916.039,VALID,0,VALID,96.4843,VALID,0,VALID,20.0446,VALID,129,VALID,0.576389,
2004-12-22, 01:26:00,VALID,916.015,VALID,0,VALID,96.5873,VALID,0.0169808,VALID,20.0284,VALID,81,VALID,0.463889,
2004-12-22, 01:27:00,VALID,916.003,VALID,0,VALID,96.2935,VALID,0,VALID,19.9961,VALID,113,VALID,1.18788,
2004-12-22, 01:28:00,VALID,915.987,VALID,0,VALID,96.0913,VALID,0.0169808,VALID,20.0379,VALID,70,VALID,0.778088,
2004-12-22, 01:29:00,VALID,915.978,VALID,0,VALID,96.1155,VALID,0.0169808,VALID,20.0739,VALID,102,VALID,0.777616,
2004-12-22, 01:30:00,VALID,915.961,VALID,0,VALID,96.2261,VALID,0,VALID,20.0704,VALID,90,VALID,1.01563,
2004-12-22, 01:31:00,VALID,915.957,VALID,0,VALID,96.2579,VALID,0.0169808,VALID,20.0734,VALID,73,VALID,0.547057,
2004-12-22, 01:32:00,VALID,915.961,VALID,0,VALID,96.2567,VALID,-0.0169808,VALID,20.0605,VALID,110,VALID,1.09796,
2004-12-22, 01:33:00,VALID,915.939,VALID,0,VALID,96.0939,VALID,-0.0169808,VALID,20.0774,VALID,125,VALID,1.20722,
2004-12-22, 01:34:00,VALID,915.93,VALID,0,VALID,96.0341,VALID,0,VALID,20.0965,VALID,136,VALID,1.11573,
2004-12-22, 01:35:00,VALID,915.929,VALID,0,VALID,96.0417,VALID,0,VALID,20.1159,VALID,134,VALID,1.01381,
2004-12-22, 01:36:00,VALID,915.914,VALID,0,VALID,96.0761,VALID,-0.0169808,VALID,20.1196,VALID,115,VALID,0.882643,
2004-12-22, 01:37:00,VALID,915.907,VALID,0,VALID,96.1244,VALID,-0.0169808,VALID,20.1161,VALID,61,VALID,0.27439,
2004-12-22, 01:38:00,VALID,915.91,VALID,0,VALID,96.0964,VALID,0,VALID,20.096,VALID,72,VALID,0.620536,
2004-12-22, 01:39:00,VALID,915.893,VALID,0,VALID,96.0227,VALID,0,VALID,20.0928,VALID,91,VALID,0.700763,
2004-12-22, 01:40:00,VALID,915.872,VALID,0,VALID,95.9057,VALID,0,VALID,20.1156,VALID,99,VALID,0.620561,
2004-12-22, 01:41:00,VALID,915.869,VALID,0,VALID,95.7645,VALID,0.0339617,VALID,20.1383,VALID,98,VALID,0.622093,
2004-12-22, 01:42:00,VALID,915.846,VALID,0,VALID,95.6069,VALID,0,VALID,20.1477,VALID,109,VALID,0.640425,
2004-12-22, 01:43:00,VALID,915.827,VALID,0,VALID,95.5446,VALID,0,VALID,20.1638,VALID,126,VALID,0.286156,
2004-12-22, 01:44:00,VALID,915.814,VALID,0,VALID,95.4733,VALID,-0.0169808,VALID,20.1706,VALID,126,VALID,0.0065407,
2004-12-22, 01:45:00,VALID,915.794,VALID,0,VALID,95.4594,VALID,-0.0169808,VALID,20.1837,VALID,126,VALID,0.0444444,
2004-12-22, 01:46:00,VALID,915.797,VALID,0,VALID,95.5,VALID,0.0169808,VALID,20.1897,VALID,145,VALID,0.395531,
2004-12-22, 01:47:00,VALID,915.781,VALID,0,VALID,95.762,VALID,0,VALID,20.1867,VALID,199,VALID,0.458133,
2004-12-22, 01:48:00,VALID,915.773,VALID,0,VALID,96.3482,VALID,-0.0509425,VALID,20.1231,VALID,259,VALID,0.601199,
2004-12-22, 01:49:00,VALID,915.77,VALID,0,VALID,96.7755,VALID,-0.118866,VALID,20.0235,VALID,260,VALID,0.676417,
2004-12-22, 01:50:00,VALID,915.785,VALID,0,VALID,97.2358,VALID,-0.0849042,VALID,19.9169,VALID,259,VALID,0.612424,
2004-12-22, 01:51:00,VALID,915.778,VALID,0,VALID,97.6694,VALID,-0.118866,VALID,19.8294,VALID,258,VALID,0.53016,
2004-12-22, 01:52:00,VALID,915.775,VALID,0,VALID,98.0649,VALID,-0.101885,VALID,19.7713,VALID,257,VALID,0.526526,
2004-12-22, 01:53:00,VALID,915.764,VALID,0,VALID,98.3701,VALID,-0.101885,VALID,19.7196,VALID,254,VALID,0.308949,
2004-12-22, 01:54:00,VALID,915.758,VALID,0,VALID,98.6295,VALID,-0.0849042,VALID,19.6808,VALID,254,VALID,0.284299,
2004-12-22, 01:55:00,VALID,915.752,VALID,0,VALID,98.8698,VALID,-0.0849042,VALID,19.658,VALID,254,VALID,0.329215,
2004-12-22, 01:56:00,VALID,915.736,VALID,0,VALID,99.133,VALID,-0.0679233,VALID,19.6714,VALID,262,VALID,0.208676,
2004-12-22, 01:57:00,VALID,915.718,VALID,0,VALID,99.2386,VALID,-0.0509425,VALID,19.6712,VALID,263,VALID,0,
2004-12-22, 01:58:00,VALID,915.694,VALID,0,VALID,99.278,VALID,-0.0849042,VALID,19.6677,VALID,263,VALID,0,
2004-12-22, 01:59:00,VALID,915.669,VALID,0,VALID,99.3047,VALID,-0.0849042,VALID,19.6838,VALID,263,VALID,0,
2004-12-22, 02:00:00,VALID,915.654,VALID,0,VALID,99.2971,VALID,-0.0339617,VALID,19.6808,VALID,272,VALID,0.295987,
2004-12-22, 02:01:00,VALID,915.648,VALID,0,VALID,99.3517,VALID,-0.0679233,VALID,19.6744,VALID,295,VALID,0.462798,
2004-12-22, 02:02:00,VALID,915.629,VALID,0,VALID,99.3123,VALID,-0.101885,VALID,19.6749,VALID,295,VALID,0.31686,
2004-12-22, 02:03:00,VALID,915.62,VALID,0,VALID,99.3594,VALID,-0.0169808,VALID,19.6505,VALID,295,VALID,0.0713778,
2004-12-22, 02:04:00,VALID,915.609,VALID,0,VALID,99.3873,VALID,0.0169808,VALID,19.6565,VALID,295,VALID,0.00111607,
2004-12-22, 02:05:00,VALID,915.582,VALID,0,VALID,99.381,VALID,0.0509425,VALID,19.65,VALID,295,VALID,0,
2004-12-22, 02:06:00,VALID,915.572,VALID,0,VALID,99.3403,VALID,0,VALID,19.6441,VALID,295,VALID,0.000744048,
2004-12-22, 02:07:00,VALID,915.562,VALID,0,VALID,99.3021,VALID,0,VALID,19.6341,VALID,295,VALID,0.319922,
2004-12-22, 02:08:00,VALID,915.541,VALID,0,VALID,99.2754,VALID,0.0169808,VALID,19.6086,VALID,3,VALID,0.60404,
2004-12-22, 02:09:00,VALID,915.525,VALID,0,VALID,99.2182,VALID,0,VALID,19.5892,VALID,30,VALID,0.882813,
2004-12-22, 02:10:00,VALID,915.497,VALID,0,VALID,99.2284,VALID,0.0169808,VALID,19.5574,VALID,38,VALID,0.968584,
2004-12-22, 02:11:00,VALID,915.484,VALID,0,VALID,99.4051,VALID,0.0169808,VALID,19.5181,VALID,43,VALID,1.0943,
2004-12-22, 02:12:00,VALID,915.463,VALID,0,VALID,99.5679,VALID,0,VALID,19.5017,VALID,41,VALID,0.938643,
2004-12-22, 02:13:00,VALID,915.447,VALID,0,VALID,99.6963,VALID,0,VALID,19.4888,VALID,41,VALID,0.601744,
2004-12-22, 02:14:00,VALID,915.416,VALID,0,VALID,99.826,VALID,0.0169808,VALID,19.4923,VALID,41,VALID,0.391797,
2004-12-22, 02:15:00,VALID,915.402,VALID,0,VALID,99.8438,VALID,0,VALID,19.4761,VALID,41,VALID,0.428163,
2004-12-22, 02:16:00,VALID,915.378,VALID,0,VALID,99.8477,VALID,0,VALID,19.4665,VALID,41,VALID,0.271129,
2004-12-22, 02:17:00,VALID,915.366,VALID,0,VALID,99.8362,VALID,0.0339617,VALID,19.4665,VALID,41,VALID,0.419017,
2004-12-22, 02:18:00,VALID,915.359,VALID,0,VALID,99.8909,VALID,-0.0679233,VALID,19.4707,VALID,41,VALID,0.473772,
2004-12-22, 02:19:00,VALID,915.35,VALID,0,VALID,99.9379,VALID,-0.101885,VALID,19.4679,VALID,41,VALID,0.500744,
2004-12-22, 02:20:00,VALID,915.337,VALID,0,VALID,99.8985,VALID,-0.0849042,VALID,19.4647,VALID,42,VALID,0.487749,
2004-12-22, 02:21:00,VALID,915.331,VALID,0,VALID,99.9125,VALID,-0.118866,VALID,19.4615,VALID,52,VALID,0.577106,
2004-12-22, 02:22:00,VALID,915.328,VALID,0,VALID,99.9214,VALID,-0.0679233,VALID,19.4548,VALID,53,VALID,0.579055,
2004-12-22, 02:23:00,VALID,915.316,VALID,0,VALID,99.8693,VALID,-0.0849042,VALID,19.4585,VALID,63,VALID,0.523264,
2004-12-22, 02:24:00,VALID,915.31,VALID,0,VALID,99.8095,VALID,-0.0849042,VALID,19.4485,VALID,66,VALID,0.291667,
2004-12-22, 02:25:00,VALID,915.312,VALID,0,VALID,99.765,VALID,-0.0849042,VALID,19.4227,VALID,66,VALID,0.502418,
2004-12-22, 02:26:00,VALID,915.291,VALID,0,VALID,99.8222,VALID,-0.101885,VALID,19.4195,VALID,66,VALID,0.32976,
2004-12-22, 02:27:00,VALID,915.288,VALID,0,VALID,99.8731,VALID,-0.0849042,VALID,19.4093,VALID,66,VALID,0.228924,
2004-12-22, 02:28:00,VALID,915.283,VALID,0,VALID,99.8604,VALID,-0.101885,VALID,19.3966,VALID,66,VALID,0.403409,
2004-12-22, 02:29:00,VALID,915.273,VALID,0,VALID,99.8477,VALID,-0.0849042,VALID,19.3872,VALID,66,VALID,0.106571,
2004-12-22, 02:30:00,VALID,915.266,VALID,0,VALID,99.7396,VALID,-0.101885,VALID,19.3646,VALID,66,VALID,0.139672,
2004-12-22, 02:31:00,VALID,915.267,VALID,0,VALID,99.6976,VALID,-0.0679233,VALID,19.3355,VALID,66,VALID,0.341992,
2004-12-22, 02:32:00,VALID,915.277,VALID,0,VALID,99.7777,VALID,-0.101885,VALID,19.3194,VALID,66,VALID,0.121911,
2004-12-22, 02:33:00,VALID,915.274,VALID,0,VALID,99.7955,VALID,-0.101885,VALID,19.3129,VALID,66,VALID,0,
2004-12-22, 02:34:00,VALID,915.277,VALID,0,VALID,99.8388,VALID,-0.101885,VALID,19.3226,VALID,66,VALID,0,
2004-12-22, 02:35:00,VALID,915.279,VALID,0,VALID,99.9252,VALID,-0.101885,VALID,19.3228,VALID,66,VALID,0.0985863,
2004-12-22, 02:36:00,VALID,915.26,VALID,0,VALID,99.988,VALID,-0.0679233,VALID,19.3226,VALID,66,VALID,0.0790551,
2004-12-22, 02:37:00,VALID,915.242,VALID,0,VALID,100,VALID,-0.101885,VALID,19.339,VALID,66,VALID,0.000762195,
2004-12-22, 02:38:00,VALID,915.222,VALID,0,VALID,100,VALID,-0.101885,VALID,19.3293,VALID,66,VALID,0.302973,
2004-12-22, 02:39:00,VALID,915.205,VALID,0,VALID,100,VALID,-0.0849042,VALID,19.3387,VALID,60,VALID,0.749112,
2004-12-22, 02:40:00,VALID,915.185,VALID,0,VALID,100,VALID,-0.0849042,VALID,19.3678,VALID,59,VALID,0.680208,
2004-12-22, 02:41:00,VALID,915.159,VALID,0,VALID,99.9865,VALID,-0.0849042,VALID,19.3678,VALID,64,VALID,0.625174,
2004-12-22, 02:42:00,VALID,915.15,VALID,0,VALID,100,VALID,-0.101885,VALID,19.3872,VALID,76,VALID,0.611979,
2004-12-22, 02:43:00,VALID,915.137,VALID,0,VALID,100,VALID,-0.0849042,VALID,19.3999,VALID,76,VALID,0.660866,
2004-12-22, 02:44:00,VALID,915.111,VALID,0,VALID,100,VALID,-0.0679233,VALID,19.4192,VALID,76,VALID,0.603431,
2004-12-22, 02:45:00,VALID,915.1,VALID,0,VALID,100,VALID,-0.0509425,VALID,19.4518,VALID,76,VALID,0.442224,
2004-12-22, 02:46:00,VALID,915.095,VALID,0,VALID,99.9008,VALID,-0.101885,VALID,19.4781,VALID,80,VALID,0.614757,
2004-12-22, 02:47:00,VALID,915.092,VALID,0,VALID,99.7765,VALID,-0.101885,VALID,19.4843,VALID,86,VALID,0.775724,
2004-12-22, 02:48:00,VALID,915.098,VALID,0,VALID,99.6442,VALID,-0.0679233,VALID,19.4766,VALID,91,VALID,0.75728,
2004-12-22, 02:49:00,VALID,915.096,VALID,0,VALID,99.6124,VALID,0,VALID,19.49,VALID,100,VALID,0.80451,
2004-12-22, 02:50:00,VALID,915.091,VALID,0,VALID,99.5806,VALID,-0.0169808,VALID,19.4729,VALID,111,VALID,0.835565,
2004-12-22, 02:51:00,VALID,915.089,VALID,0,VALID,99.5514,VALID,-0.0339617,VALID,19.4861,VALID,107,VALID,0.84468,
2004-12-22, 02:52:00,VALID,915.089,VALID,0,VALID,99.5412,VALID,0,VALID,19.4826,VALID,134,VALID,0.94308,
2004-12-22, 02:53:00,VALID,915.087,VALID,0,VALID,99.6213,VALID,0.0339617,VALID,19.5055,VALID,134,VALID,0.712891,
2004-12-22, 02:54:00,VALID,915.097,VALID,0,VALID,99.5781,VALID,-0.0169808,VALID,19.5149,VALID,140,VALID,0.726563,
2004-12-22, 02:55:00,VALID,915.092,VALID,0,VALID,99.5374,VALID,-0.0169808,VALID,19.538,VALID,134,VALID,0.87779,
2004-12-22, 02:56:00,VALID,915.084,VALID,0,VALID,99.4764,VALID,0.0169808,VALID,19.5442,VALID,135,VALID,0.396439,
2004-12-22, 02:57:00,VALID,915.088,VALID,0,VALID,99.414,VALID,0,VALID,19.5641,VALID,134,VALID,0.183416,
2004-12-22, 02:58:00,VALID,915.084,VALID,0,VALID,99.3861,VALID,0,VALID,19.5571,VALID,134,VALID,0.193824,
2004-12-22, 02:59:00,VALID,915.09,VALID,0,VALID,99.3301,VALID,0.0169808,VALID,19.5738,VALID,134,VALID,0.266493,
2004-12-22, 03:00:00,VALID,915.09,VALID,0,VALID,99.3161,VALID,0,VALID,19.5643,VALID,134,VALID,0.464026,
2004-12-22, 03:01:00,VALID,915.081,VALID,0,VALID,99.3708,VALID,0,VALID,19.5569,VALID,133,VALID,0.657158,
2004-12-22, 03:02:00,VALID,915.081,VALID,0,VALID,99.4827,VALID,0,VALID,19.5574,VALID,131,VALID,1.03646,
2004-12-22, 03:03:00,VALID,915.086,VALID,0,VALID,99.5247,VALID,0,VALID,19.5442,VALID,125,VALID,0.758594,
2004-12-22, 03:04:00,VALID,915.079,VALID,0,VALID,99.5959,VALID,0,VALID,19.5315,VALID,128,VALID,0.699963,
2004-12-22, 03:05:00,VALID,915.061,VALID,0,VALID,99.6569,VALID,-0.0339617,VALID,19.5251,VALID,121,VALID,0.823475,
2004-12-22, 03:06:00,VALID,915.066,VALID,0,VALID,99.6722,VALID,-0.0169808,VALID,19.5286,VALID,133,VALID,0.543341,
2004-12-22, 03:07:00,VALID,915.06,VALID,0,VALID,99.7192,VALID,-0.0169808,VALID,19.5514,VALID,110,VALID,0.555246,
2004-12-22, 03:08:00,VALID,915.057,VALID,0,VALID,99.6035,VALID,-0.0169808,VALID,19.5407,VALID,106,VALID,0.872266,
2004-12-22, 03:09:00,VALID,915.04,VALID,0,VALID,99.5946,VALID,-0.0339617,VALID,19.5509,VALID,104,VALID,0.79375,
2004-12-22, 03:10:00,VALID,915.044,VALID,0,VALID,99.5209,VALID,-0.0169808,VALID,19.5579,VALID,101,VALID,0.987847,
2004-12-22, 03:11:00,VALID,915.019,VALID,0,VALID,99.5145,VALID,0,VALID,19.5636,VALID,103,VALID,0.839026,
2004-12-22, 03:12:00,VALID,914.992,VALID,0,VALID,99.4649,VALID,0,VALID,19.5738,VALID,120,VALID,0.729492,
2004-12-22, 03:13:00,VALID,914.977,VALID,0,VALID,99.4001,VALID,-0.0169808,VALID,19.5802,VALID,120,VALID,0.420422,
2004-12-22, 03:14:00,VALID,914.966,VALID,0,VALID,99.3009,VALID,0,VALID,19.5929,VALID,111,VALID,0.585392,
2004-12-22, 03:15:00,VALID,914.952,VALID,0,VALID,99.2309,VALID,0,VALID,19.5994,VALID,105,VALID,0.676448,
2004-12-22, 03:16:00,VALID,914.941,VALID,0,VALID,99.2271,VALID,0,VALID,19.5961,VALID,120,VALID,0.624619,
2004-12-22, 03:17:00,VALID,914.944,VALID,0,VALID,99.1966,VALID,-0.0169808,VALID,19.5927,VALID,134,VALID,0.593023,
2004-12-22, 03:18:00,VALID,914.937,VALID,0,VALID,99.1966,VALID,-0.0679233,VALID,19.5902,VALID,131,VALID,0.885719,
2004-12-22, 03:19:00,VALID,914.934,VALID,0,VALID,99.2208,VALID,-0.101885,VALID,19.5777,VALID,135,VALID,0.551235,
2004-12-22, 03:20:00,VALID,914.931,VALID,0,VALID,99.2564,VALID,-0.118866,VALID,19.5623,VALID,113,VALID,0.428267,
2004-12-22, 03:21:00,VALID,914.94,VALID,0,VALID,99.3873,VALID,-0.118866,VALID,19.5367,VALID,129,VALID,0.496548,
2004-12-22, 03:22:00,VALID,914.937,VALID,0,VALID,99.4929,VALID,-0.101885,VALID,19.4905,VALID,135,VALID,0.50558,
2004-12-22, 03:23:00,VALID,914.94,VALID,0,VALID,99.6175,VALID,-0.101885,VALID,19.4751,VALID,135,VALID,0.674893,
2004-12-22, 03:24:00,VALID,914.925,VALID,0,VALID,99.7574,VALID,-0.118866,VALID,19.4322,VALID,143,VALID,0.467797,
2004-12-22, 03:25:00,VALID,914.912,VALID,0,VALID,99.9062,VALID,-0.101885,VALID,19.4262,VALID,154,VALID,0.806868,
2004-12-22, 03:26:00,VALID,914.893,VALID,0,VALID,99.9929,VALID,-0.101885,VALID,19.4195,VALID,148,VALID,0.730208,
2004-12-22, 03:27:00,VALID,914.888,VALID,0,VALID,100,VALID,-0.101885,VALID,19.4423,VALID,145,VALID,0.884266,
2004-12-22, 03:28:00,VALID,914.877,VALID,0,VALID,100,VALID,-0.101885,VALID,19.4645,VALID,144,VALID,0.990473,
2004-12-22, 03:29:00,VALID,914.872,VALID,0,VALID,100,VALID,-0.0849042,VALID,19.5072,VALID,148,VALID,0.770089,
2004-12-22, 03:30:00,VALID,914.871,VALID,0,VALID,99.9705,VALID,-0.101885,VALID,19.5295,VALID,150,VALID,1.00114,
2004-12-22, 03:31:00,VALID,914.878,VALID,0,VALID,99.8159,VALID,-0.0849042,VALID,19.5718,VALID,144,VALID,0.865076,
2004-12-22, 03:32:00,VALID,914.865,VALID,0,VALID,99.6506,VALID,-0.101885,VALID,19.5941,VALID,149,VALID,0.468572,
2004-12-22, 03:33:00,VALID,914.861,VALID,0,VALID,99.5259,VALID,-0.0169808,VALID,19.616,VALID,150,VALID,0.572621,
2004-12-22, 03:34:00,VALID,914.857,VALID,0,VALID,99.4217,VALID,0.0169808,VALID,19.6212,VALID,151,VALID,0.449128,